logo tempoitalia

Diretta Meteo Abakan, Russialunedì 31 agosto ore 12:00

Mappa
Sereno 23 °C Sereno 24 Ore: T.min 15 T.max 25
Ponente Sud/Sud-Ovest Km/h 21.6 Punto di rugiada: 12 °C Umidità: 49% Visibilità: 10 Km
Il sole sorge alle: 06:01 Il sole tramonta alle: 19:48
31 Agosto 2026 12:00 tempo osservato: Sereno Sereno 23 49 1009 vento: Nord S/SO 21.6
31 Agosto 2026 11:30 tempo osservato: Sereno Sereno 22 64 1009 vento: Nord S 18
31 Agosto 2026 11:00 tempo osservato: Poco Nuvoloso Poco Nuvoloso 21 64 1010 vento: Nord S/SO 14.4
31 Agosto 2026 10:30 tempo osservato: Poco Nuvoloso Poco Nuvoloso 20 68 1010 vento: Nord S/SO 14.4
31 Agosto 2026 10:00 tempo osservato: Poco Nuvoloso Poco Nuvoloso 20 68 1010 vento: Nord S 18
31 Agosto 2026 09:30 tempo osservato: Sereno Sereno 19 72 1010 vento: Nord S 14.4
31 Agosto 2026 09:00 tempo osservato: Sereno Sereno 18 77 1010 vento: Nord S 10.8
31 Agosto 2026 08:30 tempo osservato: Sereno Sereno 17 88 1010 vento: Nord S 10.8
31 Agosto 2026 08:00 tempo osservato: Sereno Sereno 16 87 1009 vento: Nord N 7.2
31 Agosto 2026 07:30 tempo osservato: Sereno Sereno 16 93 1009 vento: Nord S/SO 10.8
31 Agosto 2026 07:00 tempo osservato: Sereno Sereno 15 93 1009 vento: Nord N 7.2
31 Agosto 2026 06:30 tempo osservato: Sereno Sereno 15 100 1009 vento: Nord S/SO 10.8
31 Agosto 2026 06:00 tempo osservato: Pioggia Pioggia 15 100 1009 vento: Nord SO 14.4
31 Agosto 2026 05:30 tempo osservato: Pioggia Pioggia 15 100 1009 vento: Nord S/SO 14.4
31 Agosto 2026 05:00 tempo osservato: Pioggia Pioggia 16 93 1010 vento: Nord S 18
31 Agosto 2026 04:30 tempo osservato: Pioggia Pioggia 16 93 1009 vento: Nord O/SO 10.8
31 Agosto 2026 04:00 tempo osservato: Pioggia Pioggia 15 100 1009 vento: Nord N 7.2
31 Agosto 2026 03:30 tempo osservato: Pioggia Pioggia 16 93 1008 vento: Nord N 3.6
31 Agosto 2026 03:00 tempo osservato: Pioggia Pioggia 16 93 1008 vento: Nord N 7.2
31 Agosto 2026 02:30 tempo osservato: Pioggia Pioggia 16 93 1008 vento: Nord O/SO 10.8
31 Agosto 2026 02:16 tempo osservato: Pioggia Pioggia 16 93 1008 vento: Nord O/SO 10.8
31 Agosto 2026 02:00 tempo osservato: Temporale Temporale 16 93 1007 vento: Nord N 3.6
31 Agosto 2026 01:30 tempo osservato: Temporale Temporale 16 93 1008 vento: Nord N 7.2
31 Agosto 2026 01:00 tempo osservato: Temporale Temporale 16 93 1008 vento: Nord N 7.2
31 Agosto 2026 00:52 tempo osservato: Temporale Temporale 16 93 1008 vento: Nord N 7.2
31 Agosto 2026 00:42 tempo osservato: Pioggia Pioggia 16 93 1008 vento: Nord O/NO 10.8
31 Agosto 2026 00:30 tempo osservato: Temporale Temporale 16 93 1008 vento: Nord N 7.2
31 Agosto 2026 00:00 tempo osservato: Temporale Temporale 16 93 1008 vento: Nord N/NO 14.4
30 Agosto 2026 23:52 tempo osservato: Temporale Temporale 16 93 1008 vento: Nord N/NO 14.4
30 Agosto 2026 23:30 tempo osservato: Pioggia Pioggia 16 93 1008 vento: Nord N/NO 14.4
30 Agosto 2026 23:22 tempo osservato: Pioggia Pioggia 16 93 1009 vento: Nord N 10.8
30 Agosto 2026 23:00 tempo osservato: Temporale Temporale 16 93 1009 vento: Nord NO 10.8
30 Agosto 2026 22:51 tempo osservato: Temporale Temporale 16 100 1008 vento: Nord NO 18
30 Agosto 2026 22:44 tempo osservato: Pioggia Pioggia 17 93 1009 vento: Nord O 25.2
30 Agosto 2026 22:30 tempo osservato: Temporale Temporale 17 88 1008 vento: Nord O 10.8
30 Agosto 2026 22:00 tempo osservato: Temporale Temporale 18 77 1007 vento: Nord N/NO 10.8
30 Agosto 2026 21:44 tempo osservato: Temporale Temporale 18 77 1007 vento: Nord N 7.2
30 Agosto 2026 21:30 tempo osservato: Sereno Sereno 18 77 1007 vento: Nord N 7.2
30 Agosto 2026 21:00 tempo osservato: Sereno Sereno 18 77 1008 vento: Nord N 3.6
30 Agosto 2026 20:30 tempo osservato: Sereno Sereno 18 77 1008 vento: Nord N 3.6
30 Agosto 2026 20:00 tempo osservato: Sereno Sereno 19 72 1008 vento: Nord N 3.6
30 Agosto 2026 19:30 tempo osservato: Sereno Sereno 19 72 1008 vento: Nord N 7.2
30 Agosto 2026 19:00 tempo osservato: Sereno Sereno 21 64 1008 vento: Nord N 7.2
30 Agosto 2026 18:30 tempo osservato: Sereno Sereno 21 60 1008 vento: Nord N 7.2
30 Agosto 2026 18:00 tempo osservato: Sereno Sereno 22 60 1008 vento: Nord N 7.2
30 Agosto 2026 17:30 tempo osservato: Sereno Sereno 23 53 1008 vento: Nord N/NO 10.8
30 Agosto 2026 17:00 tempo osservato: Sereno Sereno 24 50 1008 vento: Nord N/NO 10.8
30 Agosto 2026 16:30 tempo osservato: Sereno Sereno 24 50 1008 vento: Nord N 14.4
30 Agosto 2026 16:00 tempo osservato: Sereno Sereno 24 50 1008 vento: Nord N 10.8
30 Agosto 2026 15:30 tempo osservato: Sereno Sereno 25 50 1008 vento: Nord N 10.8
30 Agosto 2026 15:00 tempo osservato: Sereno Sereno 24 50 1008 vento: Nord N 3.6
30 Agosto 2026 14:30 tempo osservato: Sereno Sereno 24 50 1009 vento: Nord N 3.6
30 Agosto 2026 14:00 tempo osservato: Sereno Sereno 24 50 1009 vento: Nord N 7.2
30 Agosto 2026 13:30 tempo osservato: Sereno Sereno 23 53 1009 vento: Nord N 7.2
30 Agosto 2026 13:00 tempo osservato: Sereno Sereno 23 49 1009 vento: Nord N 3.6